Year,Month,Day,Hour,Minute,Value (Times are PST for windgust in km/hr)
2014,07,10,00,00,17.70
2014,07,10,00,01,16.10
2014,07,10,00,02,9.60
2014,07,10,00,03,8.10
2014,07,10,00,04,9.60
2014,07,10,00,05,9.60
2014,07,10,00,06,11.30
2014,07,10,00,07,9.60
2014,07,10,00,08,16.10
2014,07,10,00,09,14.50
2014,07,10,00,10,9.60
2014,07,10,00,11,9.60
2014,07,10,00,12,19.30
2014,07,10,00,13,8.10
2014,07,10,00,14,11.30
2014,07,10,00,15,8.10
2014,07,10,00,16,25.70
2014,07,10,00,17,8.10
2014,07,10,00,18,4.80
2014,07,10,00,19,14.50
2014,07,10,00,20,11.30
2014,07,10,00,22,9.60
2014,07,10,00,23,8.10
2014,07,10,00,24,16.10
2014,07,10,00,25,19.30
2014,07,10,00,26,8.10
2014,07,10,00,27,16.10
2014,07,10,00,28,11.30
2014,07,10,00,29,6.40
2014,07,10,00,30,16.10
2014,07,10,00,31,14.50
2014,07,10,00,32,22.50
2014,07,10,00,33,14.50
2014,07,10,00,34,14.50
2014,07,10,00,35,19.30
2014,07,10,00,36,29.00
2014,07,10,00,37,8.10
2014,07,10,00,38,17.70
2014,07,10,00,39,25.70
2014,07,10,00,40,11.30
2014,07,10,00,41,25.70
2014,07,10,00,42,14.50
2014,07,10,00,43,8.10
2014,07,10,00,44,12.90
2014,07,10,00,45,19.30
2014,07,10,00,46,9.60
2014,07,10,00,47,8.10
2014,07,10,00,48,9.60
2014,07,10,00,49,4.80
2014,07,10,00,50,17.70
2014,07,10,00,51,14.50
2014,07,10,00,52,16.10
2014,07,10,00,53,6.40
2014,07,10,00,54,19.30
2014,07,10,00,55,25.70
2014,07,10,00,56,22.50
2014,07,10,00,57,20.90
2014,07,10,00,58,8.10
2014,07,10,00,59,17.70
2014,07,10,01,00,19.30
2014,07,10,01,01,6.40
2014,07,10,01,02,17.70
2014,07,10,01,03,14.50
2014,07,10,01,04,9.60
2014,07,10,01,05,9.60
2014,07,10,01,06,11.30
2014,07,10,01,07,17.70
2014,07,10,01,08,19.30
2014,07,10,01,09,22.50
2014,07,10,01,10,20.90
2014,07,10,01,11,20.90
2014,07,10,01,12,25.70
2014,07,10,01,13,12.90
2014,07,10,01,14,27.40
2014,07,10,01,15,16.10
2014,07,10,01,16,25.70
2014,07,10,01,17,14.50
2014,07,10,01,18,17.70
2014,07,10,01,19,27.40
2014,07,10,01,20,20.90
2014,07,10,01,21,19.30
2014,07,10,01,22,24.20
2014,07,10,01,23,24.20
2014,07,10,01,24,22.50
2014,07,10,01,25,17.70
2014,07,10,01,26,17.70
2014,07,10,01,27,19.30
2014,07,10,01,28,20.90
2014,07,10,01,29,25.70
2014,07,10,01,30,24.20
2014,07,10,01,31,19.30
2014,07,10,01,32,16.10
2014,07,10,01,33,19.30
2014,07,10,01,34,16.10
2014,07,10,01,35,16.10
2014,07,10,01,36,14.50
2014,07,10,01,37,11.30
2014,07,10,01,38,16.10
2014,07,10,01,39,29.00
2014,07,10,01,40,27.40
2014,07,10,01,41,17.70
2014,07,10,01,42,19.30
2014,07,10,01,43,25.70
2014,07,10,01,44,33.80
2014,07,10,01,45,33.80
2014,07,10,01,46,32.20
2014,07,10,01,47,45.10
2014,07,10,01,48,29.00
2014,07,10,01,49,45.10
2014,07,10,01,50,35.40
2014,07,10,01,51,24.20
2014,07,10,01,52,20.90
2014,07,10,01,53,35.40
2014,07,10,01,54,9.60
2014,07,10,01,55,37.00
2014,07,10,01,56,20.90
2014,07,10,01,57,22.50
2014,07,10,01,58,24.20
2014,07,10,01,59,19.30
2014,07,10,02,00,22.50
2014,07,10,02,01,17.70
2014,07,10,02,02,17.70
2014,07,10,02,03,25.70
2014,07,10,02,04,25.70
2014,07,10,02,05,27.40
2014,07,10,02,06,40.20
2014,07,10,02,07,20.90
2014,07,10,02,08,25.70
2014,07,10,02,09,30.60
2014,07,10,02,10,27.40
2014,07,10,02,11,48.30
2014,07,10,02,12,32.20
2014,07,10,02,13,38.60
2014,07,10,02,14,35.40
2014,07,10,02,15,24.20
2014,07,10,02,16,22.50
2014,07,10,02,17,46.70
2014,07,10,02,18,38.60
2014,07,10,02,19,40.20
2014,07,10,02,20,35.40
2014,07,10,02,21,35.40
2014,07,10,02,22,48.30
2014,07,10,02,23,33.80
2014,07,10,02,24,37.00
2014,07,10,02,25,33.80
2014,07,10,02,26,37.00
2014,07,10,02,27,30.60
2014,07,10,02,28,40.20
2014,07,10,02,29,37.00
2014,07,10,02,30,14.50
2014,07,10,02,31,32.20
2014,07,10,02,32,43.50
2014,07,10,02,33,27.40
2014,07,10,02,34,48.30
2014,07,10,02,35,27.40
2014,07,10,02,36,24.20
2014,07,10,02,37,17.70
2014,07,10,02,38,20.90
2014,07,10,02,39,37.00
2014,07,10,02,40,37.00
2014,07,10,02,41,29.00
2014,07,10,02,42,27.40
2014,07,10,02,43,24.20
2014,07,10,02,44,11.30
2014,07,10,02,45,14.50
2014,07,10,02,46,22.50
2014,07,10,02,47,3.20
2014,07,10,02,48,14.50
2014,07,10,02,49,17.70
2014,07,10,02,50,20.90
2014,07,10,02,51,24.20
2014,07,10,02,52,20.90
2014,07,10,02,53,25.70
2014,07,10,02,54,20.90
2014,07,10,02,55,3.20
2014,07,10,02,56,6.40
2014,07,10,02,57,11.30
2014,07,10,02,58,1.60
2014,07,10,02,59,8.10
2014,07,10,03,00,20.90
2014,07,10,03,01,8.10
2014,07,10,03,02,9.60
2014,07,10,03,03,9.60
2014,07,10,03,04,9.60
2014,07,10,03,05,3.20
2014,07,10,03,06,6.40
2014,07,10,03,07,12.90
2014,07,10,03,08,20.90
2014,07,10,03,09,27.40
2014,07,10,03,10,9.60
2014,07,10,03,11,4.80
2014,07,10,03,12,4.80
2014,07,10,03,13,6.40
2014,07,10,03,14,1.60
2014,07,10,03,15,1.60
2014,07,10,03,16,11.30
2014,07,10,03,17,4.80
2014,07,10,03,18,4.80
2014,07,10,03,19,4.80
2014,07,10,03,20,8.10
2014,07,10,03,21,9.60
2014,07,10,03,22,9.60
2014,07,10,03,23,11.30
2014,07,10,03,24,9.60
2014,07,10,03,25,6.40
2014,07,10,03,26,9.60
2014,07,10,03,27,11.30
2014,07,10,03,28,14.50
2014,07,10,03,29,11.30
2014,07,10,03,30,14.50
2014,07,10,03,31,8.10
2014,07,10,03,32,3.20
2014,07,10,03,33,6.40
2014,07,10,03,34,8.10
2014,07,10,03,35,6.40
2014,07,10,03,36,8.10
2014,07,10,03,37,9.60
2014,07,10,03,38,8.10
2014,07,10,03,39,6.40
2014,07,10,03,40,8.10
2014,07,10,03,41,16.10
2014,07,10,03,42,11.30
2014,07,10,03,43,9.60
2014,07,10,03,44,11.30
2014,07,10,03,45,4.80
2014,07,10,03,46,16.10
2014,07,10,03,47,4.80
2014,07,10,03,48,8.10
2014,07,10,03,49,8.10
2014,07,10,03,50,9.60
2014,07,10,03,51,16.10
2014,07,10,03,52,8.10
2014,07,10,03,53,14.50
2014,07,10,03,54,16.10
2014,07,10,03,55,6.40
2014,07,10,03,56,8.10
2014,07,10,03,57,16.10
2014,07,10,03,58,12.90
2014,07,10,03,59,8.10
2014,07,10,04,00,11.30
2014,07,10,04,01,12.90
2014,07,10,04,02,11.30
2014,07,10,04,03,4.80
2014,07,10,04,04,3.20
2014,07,10,04,05,9.60
2014,07,10,04,06,12.90
2014,07,10,04,07,6.40
2014,07,10,04,08,6.40
2014,07,10,04,09,4.80
2014,07,10,04,10,3.20
2014,07,10,04,11,4.80
2014,07,10,04,12,3.20
2014,07,10,04,14,3.20
2014,07,10,04,15,4.80
2014,07,10,04,16,1.60
2014,07,10,04,48,1.60
2014,07,10,05,26,3.20
2014,07,10,05,27,11.30
2014,07,10,05,28,9.60
2014,07,10,05,29,6.40
2014,07,10,05,30,14.50
2014,07,10,05,31,9.60
2014,07,10,05,32,16.10
2014,07,10,05,33,20.90
2014,07,10,05,34,3.20
2014,07,10,05,38,6.40
2014,07,10,05,39,9.60
2014,07,10,05,40,6.40
2014,07,10,05,41,4.80
2014,07,10,05,42,3.20
2014,07,10,05,43,8.10
2014,07,10,05,44,11.30
2014,07,10,05,45,8.10
2014,07,10,05,46,20.90
2014,07,10,05,47,17.70
2014,07,10,05,48,12.90
2014,07,10,05,49,14.50
2014,07,10,05,50,9.60
2014,07,10,05,51,14.50
2014,07,10,05,52,9.60
2014,07,10,05,53,4.80
2014,07,10,05,54,4.80
2014,07,10,06,03,11.30
2014,07,10,06,04,16.10
2014,07,10,06,05,14.50
2014,07,10,06,06,9.60
2014,07,10,06,07,9.60
2014,07,10,06,08,16.10
2014,07,10,06,09,14.50
2014,07,10,06,10,16.10
2014,07,10,06,11,9.60
2014,07,10,06,12,9.60
2014,07,10,06,13,9.60
2014,07,10,06,14,8.10
2014,07,10,06,15,11.30
2014,07,10,06,16,12.90
2014,07,10,06,17,16.10
2014,07,10,06,18,9.60
2014,07,10,06,19,14.50
2014,07,10,06,20,9.60
2014,07,10,06,21,11.30
2014,07,10,06,22,12.90
2014,07,10,06,23,11.30
2014,07,10,06,24,14.50
2014,07,10,06,25,9.60
2014,07,10,06,26,11.30
2014,07,10,06,27,12.90
2014,07,10,06,28,11.30
2014,07,10,06,29,9.60
2014,07,10,06,30,11.30
2014,07,10,06,31,16.10
2014,07,10,06,32,11.30
2014,07,10,06,33,9.60
2014,07,10,06,34,6.40
2014,07,10,06,35,16.10
2014,07,10,06,36,11.30
2014,07,10,06,37,9.60
2014,07,10,06,38,11.30
2014,07,10,06,39,17.70
2014,07,10,06,40,6.40
2014,07,10,06,41,6.40
2014,07,10,06,42,11.30
2014,07,10,06,43,20.90
2014,07,10,06,44,14.50
2014,07,10,06,45,6.40
2014,07,10,06,46,20.90
2014,07,10,06,47,27.40
2014,07,10,06,48,24.20
2014,07,10,06,49,17.70
2014,07,10,06,50,22.50
2014,07,10,06,51,27.40
2014,07,10,06,52,24.20
2014,07,10,06,53,14.50
2014,07,10,06,54,20.90
2014,07,10,06,55,20.90
2014,07,10,06,56,29.00
2014,07,10,06,57,17.70
2014,07,10,06,58,14.50
2014,07,10,06,59,16.10
2014,07,10,07,00,24.20
2014,07,10,07,01,25.70
2014,07,10,07,02,17.70
2014,07,10,07,03,22.50
2014,07,10,07,04,29.00
2014,07,10,07,05,30.60
2014,07,10,07,06,27.40
2014,07,10,07,07,19.30
2014,07,10,07,08,9.60
2014,07,10,07,09,4.80
2014,07,10,07,10,6.40
2014,07,10,07,11,17.70
2014,07,10,07,13,4.80
2014,07,10,07,14,20.90
2014,07,10,07,15,25.70
2014,07,10,07,16,27.40
2014,07,10,07,17,17.70
2014,07,10,07,18,37.00
2014,07,10,07,19,22.50
2014,07,10,07,20,24.20
2014,07,10,07,21,17.70
2014,07,10,07,22,19.30
2014,07,10,07,23,9.60
2014,07,10,07,24,33.80
2014,07,10,07,25,19.30
2014,07,10,07,26,6.40
2014,07,10,07,27,1.60
2014,07,10,07,28,6.40
2014,07,10,07,29,6.40
2014,07,10,07,30,20.90
2014,07,10,07,31,6.40
2014,07,10,07,32,6.40
2014,07,10,07,33,9.60
2014,07,10,07,34,14.50
2014,07,10,07,35,8.10
2014,07,10,07,36,8.10
2014,07,10,07,37,30.60
2014,07,10,07,38,29.00
2014,07,10,07,39,37.00
2014,07,10,07,40,25.70
2014,07,10,07,41,30.60
2014,07,10,07,42,29.00
2014,07,10,07,43,27.40
2014,07,10,07,44,37.00
2014,07,10,07,45,25.70
2014,07,10,07,46,19.30
2014,07,10,07,47,24.20
2014,07,10,07,48,24.20
2014,07,10,07,49,24.20
2014,07,10,07,50,29.00
2014,07,10,07,51,37.00
2014,07,10,07,52,22.50
2014,07,10,07,53,16.10
2014,07,10,07,54,20.90
2014,07,10,07,55,20.90
2014,07,10,07,56,33.80
2014,07,10,07,57,17.70
2014,07,10,07,58,20.90
2014,07,10,07,59,33.80
2014,07,10,08,00,29.00
2014,07,10,08,01,30.60
2014,07,10,08,02,25.70
2014,07,10,08,03,30.60
2014,07,10,08,04,20.90
2014,07,10,08,05,17.70
2014,07,10,08,06,20.90
2014,07,10,08,07,20.90
2014,07,10,08,08,37.00
2014,07,10,08,09,43.50
2014,07,10,08,10,24.20
2014,07,10,08,11,22.50
2014,07,10,08,12,17.70
2014,07,10,08,13,27.40
2014,07,10,08,14,29.00
2014,07,10,08,15,32.20
2014,07,10,08,16,43.50
2014,07,10,08,17,43.50
2014,07,10,08,18,49.90
2014,07,10,08,19,27.40
2014,07,10,08,20,14.50
2014,07,10,08,21,33.80
2014,07,10,08,22,45.10
2014,07,10,08,23,40.20
2014,07,10,08,24,20.90
2014,07,10,08,25,41.80
2014,07,10,08,26,24.20
2014,07,10,08,27,29.00
2014,07,10,08,28,17.70
2014,07,10,08,29,30.60
2014,07,10,08,30,14.50
2014,07,10,08,31,29.00
2014,07,10,08,32,35.40
2014,07,10,08,33,40.20
2014,07,10,08,34,49.90
2014,07,10,08,35,37.00
2014,07,10,08,36,24.20
2014,07,10,08,37,27.40
2014,07,10,08,38,33.80
2014,07,10,08,39,40.20
2014,07,10,08,40,35.40
2014,07,10,08,41,49.90
2014,07,10,08,42,30.60
2014,07,10,08,43,27.40
2014,07,10,08,44,27.40
2014,07,10,08,45,17.70
2014,07,10,08,46,19.30
2014,07,10,08,47,24.20
2014,07,10,08,48,29.00
2014,07,10,08,49,29.00
2014,07,10,08,50,17.70
2014,07,10,08,51,30.60
2014,07,10,08,52,20.90
2014,07,10,08,53,33.80
2014,07,10,08,54,27.40
2014,07,10,08,55,33.80
2014,07,10,08,56,33.80
2014,07,10,08,57,43.50
2014,07,10,08,58,43.50
2014,07,10,08,59,35.40
2014,07,10,09,00,41.80
2014,07,10,09,01,37.00
2014,07,10,09,02,33.80
2014,07,10,09,03,40.20
2014,07,10,09,04,32.20
2014,07,10,09,08,17.70
2014,07,10,09,09,27.40
2014,07,10,09,10,29.00
2014,07,10,09,11,43.50
2014,07,10,09,12,46.70
2014,07,10,09,13,38.60
2014,07,10,09,14,38.60
2014,07,10,09,15,40.20
2014,07,10,09,16,46.70
2014,07,10,09,17,38.60
2014,07,10,09,18,17.70
2014,07,10,09,19,17.70
2014,07,10,09,20,16.10
2014,07,10,09,21,32.20
2014,07,10,09,22,25.70
2014,07,10,09,23,16.10
2014,07,10,09,24,17.70
2014,07,10,09,25,20.90
2014,07,10,09,26,9.60
2014,07,10,09,27,24.20
2014,07,10,09,28,24.20
2014,07,10,09,29,14.50
2014,07,10,09,30,22.50
2014,07,10,09,31,9.60
2014,07,10,09,32,17.70
2014,07,10,09,33,25.70
2014,07,10,09,34,14.50
2014,07,10,09,35,9.60
2014,07,10,09,36,16.10
2014,07,10,09,37,8.10
2014,07,10,09,38,14.50
2014,07,10,09,39,17.70
2014,07,10,09,40,16.10
2014,07,10,09,41,16.10
2014,07,10,09,42,22.50
2014,07,10,09,43,11.30
2014,07,10,09,44,19.30
2014,07,10,09,45,17.70
2014,07,10,09,46,16.10
2014,07,10,09,47,9.60
2014,07,10,09,48,11.30
2014,07,10,09,49,24.20
2014,07,10,09,50,32.20
2014,07,10,09,51,27.40
2014,07,10,09,52,22.50
2014,07,10,09,53,27.40
2014,07,10,09,54,17.70
2014,07,10,09,55,17.70
2014,07,10,09,56,9.60
2014,07,10,09,57,8.10
2014,07,10,09,58,17.70
2014,07,10,09,59,22.50
2014,07,10,10,00,17.70
2014,07,10,10,01,14.50
2014,07,10,10,02,17.70
2014,07,10,10,03,17.70
2014,07,10,10,04,14.50
2014,07,10,10,05,11.30
2014,07,10,10,06,14.50
2014,07,10,10,07,16.10
2014,07,10,10,08,20.90
2014,07,10,10,09,19.30
2014,07,10,10,10,9.60
2014,07,10,10,11,24.20
2014,07,10,10,12,19.30
2014,07,10,10,13,14.50
2014,07,10,10,14,9.60
2014,07,10,10,15,14.50
2014,07,10,10,16,14.50
2014,07,10,10,17,17.70
2014,07,10,10,18,9.60
2014,07,10,10,19,16.10
2014,07,10,10,20,20.90
2014,07,10,10,21,14.50
2014,07,10,10,22,20.90
2014,07,10,10,23,25.70
2014,07,10,10,24,17.70
2014,07,10,10,25,25.70
2014,07,10,10,26,24.20
2014,07,10,10,27,20.90
2014,07,10,10,28,25.70
2014,07,10,10,29,19.30
2014,07,10,10,30,11.30
2014,07,10,10,31,27.40
2014,07,10,10,32,12.90
2014,07,10,10,33,9.60
2014,07,10,10,34,17.70
2014,07,10,10,35,9.60
2014,07,10,10,36,9.60
2014,07,10,10,37,16.10
2014,07,10,10,38,9.60
2014,07,10,10,39,9.60
2014,07,10,10,40,14.50
2014,07,10,10,41,11.30
2014,07,10,10,42,11.30
2014,07,10,10,43,19.30
2014,07,10,10,44,14.50
2014,07,10,10,45,9.60
2014,07,10,10,46,14.50
2014,07,10,10,47,14.50
2014,07,10,10,48,22.50
2014,07,10,10,49,17.70
2014,07,10,10,50,9.60
2014,07,10,10,51,14.50
2014,07,10,10,52,14.50
2014,07,10,10,53,17.70
2014,07,10,10,54,12.90
2014,07,10,10,55,20.90
2014,07,10,10,56,14.50
2014,07,10,10,57,11.30
2014,07,10,10,58,20.90
2014,07,10,10,59,6.40
2014,07,10,11,00,14.50
2014,07,10,11,01,9.60
2014,07,10,11,02,11.30
2014,07,10,11,03,9.60
2014,07,10,11,04,8.10
2014,07,10,11,05,11.30
2014,07,10,11,06,8.10
2014,07,10,11,07,6.40
2014,07,10,11,08,9.60
2014,07,10,11,09,14.50
2014,07,10,11,10,11.30
2014,07,10,11,11,6.40
2014,07,10,11,12,6.40
2014,07,10,11,13,4.80
2014,07,10,11,14,9.60
2014,07,10,11,15,9.60
2014,07,10,11,16,9.60
2014,07,10,11,17,9.60
2014,07,10,11,18,9.60
2014,07,10,11,19,8.10
2014,07,10,11,20,16.10
2014,07,10,11,21,11.30
2014,07,10,11,22,9.60
2014,07,10,11,23,11.30
2014,07,10,11,24,8.10
2014,07,10,11,25,11.30
2014,07,10,11,26,17.70
2014,07,10,11,27,24.20
2014,07,10,11,28,11.30
2014,07,10,11,29,8.10
2014,07,10,11,30,27.40
2014,07,10,11,31,17.70
2014,07,10,11,32,16.10
2014,07,10,11,33,16.10
2014,07,10,11,34,16.10
2014,07,10,11,35,25.70
2014,07,10,11,36,14.50
2014,07,10,11,37,16.10
2014,07,10,11,38,16.10
2014,07,10,11,39,11.30
2014,07,10,11,40,19.30
2014,07,10,11,41,14.50
2014,07,10,11,42,32.20
2014,07,10,11,43,17.70
2014,07,10,11,44,19.30
2014,07,10,11,45,19.30
2014,07,10,11,46,16.10
2014,07,10,11,47,14.50
2014,07,10,11,48,14.50
2014,07,10,11,49,17.70
2014,07,10,11,50,19.30
2014,07,10,11,51,22.50
2014,07,10,11,52,12.90
2014,07,10,11,53,11.30
2014,07,10,11,54,17.70
2014,07,10,11,55,20.90
2014,07,10,11,56,22.50
2014,07,10,11,57,20.90
2014,07,10,11,58,24.20
2014,07,10,11,59,22.50
2014,07,10,12,00,24.20
2014,07,10,12,01,9.60
2014,07,10,12,02,17.70
2014,07,10,12,03,17.70
2014,07,10,12,04,14.50
2014,07,10,12,05,19.30
2014,07,10,12,06,16.10
2014,07,10,12,07,14.50
2014,07,10,12,08,16.10
2014,07,10,12,09,17.70
2014,07,10,12,10,20.90
2014,07,10,12,11,20.90
2014,07,10,12,12,16.10
2014,07,10,12,13,20.90
2014,07,10,12,14,27.40
2014,07,10,12,15,19.30
2014,07,10,12,16,30.60
2014,07,10,12,17,17.70
2014,07,10,12,18,19.30
2014,07,10,12,19,24.20
2014,07,10,12,20,20.90
2014,07,10,12,21,14.50
2014,07,10,12,22,16.10
2014,07,10,12,23,17.70
2014,07,10,12,24,19.30
2014,07,10,12,25,24.20
2014,07,10,12,26,20.90
2014,07,10,12,27,19.30
2014,07,10,12,28,11.30
2014,07,10,12,29,14.50
2014,07,10,12,30,16.10
2014,07,10,12,31,16.10
2014,07,10,12,32,24.20
2014,07,10,12,33,33.80
2014,07,10,12,34,12.90
2014,07,10,12,35,17.70
2014,07,10,12,36,14.50
2014,07,10,12,37,11.30
2014,07,10,12,38,19.30
2014,07,10,12,39,20.90
2014,07,10,12,40,19.30
2014,07,10,12,41,6.40
2014,07,10,12,42,16.10
2014,07,10,12,43,16.10
2014,07,10,12,44,12.90
2014,07,10,12,45,11.30
2014,07,10,12,46,14.50
2014,07,10,12,47,14.50
2014,07,10,12,48,16.10
2014,07,10,12,49,14.50
2014,07,10,12,50,33.80
2014,07,10,12,51,16.10
2014,07,10,12,52,33.80
2014,07,10,12,53,27.40
2014,07,10,12,54,17.70
2014,07,10,12,55,25.70
2014,07,10,12,56,33.80
2014,07,10,12,57,25.70
2014,07,10,12,58,33.80
2014,07,10,12,59,22.50
2014,07,10,13,00,20.90
2014,07,10,13,01,19.30
2014,07,10,13,02,6.40
2014,07,10,13,03,11.30
2014,07,10,13,04,8.10
2014,07,10,13,05,8.10
2014,07,10,13,06,14.50
2014,07,10,13,07,9.60
2014,07,10,13,08,14.50
2014,07,10,13,09,8.10
2014,07,10,13,10,11.30
2014,07,10,13,11,27.40
2014,07,10,13,12,25.70
2014,07,10,13,13,30.60
2014,07,10,13,14,19.30
2014,07,10,13,15,19.30
2014,07,10,13,16,19.30
2014,07,10,13,17,9.60
2014,07,10,13,18,27.40
2014,07,10,13,19,27.40
2014,07,10,13,20,24.20
2014,07,10,13,21,20.90
2014,07,10,13,22,24.20
2014,07,10,13,23,20.90
2014,07,10,13,24,8.10
2014,07,10,13,25,17.70
2014,07,10,13,26,9.60
2014,07,10,13,27,19.30
2014,07,10,13,28,27.40
2014,07,10,13,29,14.50
2014,07,10,13,30,22.50
2014,07,10,13,31,20.90
2014,07,10,13,32,33.80
2014,07,10,13,33,27.40
2014,07,10,13,34,17.70
2014,07,10,13,35,20.90
2014,07,10,13,36,17.70
2014,07,10,13,37,9.60
2014,07,10,13,38,29.00
2014,07,10,13,39,20.90
2014,07,10,13,40,20.90
2014,07,10,13,41,20.90
2014,07,10,13,42,16.10
2014,07,10,13,43,14.50
2014,07,10,13,44,11.30
2014,07,10,13,45,24.20
2014,07,10,13,46,24.20
2014,07,10,13,47,25.70
2014,07,10,13,48,17.70
2014,07,10,13,49,20.90
2014,07,10,13,50,17.70
2014,07,10,13,51,27.40
2014,07,10,13,52,17.70
2014,07,10,13,53,19.30
2014,07,10,13,54,20.90
2014,07,10,13,55,29.00
2014,07,10,13,56,30.60
2014,07,10,13,57,25.70
2014,07,10,13,58,38.60
2014,07,10,13,59,22.50
2014,07,10,14,00,17.70
2014,07,10,14,01,8.10
2014,07,10,14,02,16.10
2014,07,10,14,03,17.70
2014,07,10,14,04,24.20
2014,07,10,14,05,29.00
2014,07,10,14,06,32.20
2014,07,10,14,07,27.40
2014,07,10,14,08,27.40
2014,07,10,14,09,16.10
2014,07,10,14,10,14.50
2014,07,10,14,11,14.50
2014,07,10,14,12,27.40
2014,07,10,14,13,17.70
2014,07,10,14,14,17.70
2014,07,10,14,15,17.70
2014,07,10,14,16,16.10
2014,07,10,14,17,37.00
2014,07,10,14,18,29.00
2014,07,10,14,19,25.70
2014,07,10,14,20,17.70
2014,07,10,14,21,24.20
2014,07,10,14,22,6.40
2014,07,10,14,23,20.90
2014,07,10,14,24,14.50
2014,07,10,14,25,6.40
2014,07,10,14,26,12.90
2014,07,10,14,27,16.10
2014,07,10,14,28,24.20
2014,07,10,14,29,20.90
2014,07,10,14,30,22.50
2014,07,10,14,31,25.70
2014,07,10,14,32,20.90
2014,07,10,14,33,22.50
2014,07,10,14,34,22.50
2014,07,10,14,35,20.90
2014,07,10,14,36,24.20
2014,07,10,14,37,24.20
2014,07,10,14,38,9.60
2014,07,10,14,39,9.60
2014,07,10,14,40,9.60
2014,07,10,14,41,9.60
2014,07,10,14,42,27.40
2014,07,10,14,43,27.40
2014,07,10,14,44,19.30
2014,07,10,14,45,24.20
2014,07,10,14,46,20.90
2014,07,10,14,47,25.70
2014,07,10,14,48,16.10
2014,07,10,14,49,14.50
2014,07,10,14,50,17.70
2014,07,10,14,51,20.90
2014,07,10,14,52,16.10
2014,07,10,14,53,20.90
2014,07,10,14,54,24.20
2014,07,10,14,55,37.00
2014,07,10,14,56,30.60
2014,07,10,14,57,25.70
2014,07,10,14,58,25.70
2014,07,10,14,59,11.30
2014,07,10,15,00,11.30
2014,07,10,15,01,19.30
2014,07,10,15,02,17.70
2014,07,10,15,03,51.50
2014,07,10,15,04,38.60
2014,07,10,15,05,54.70
2014,07,10,15,06,45.10
2014,07,10,15,07,46.70
2014,07,10,15,08,38.60
2014,07,10,15,09,35.40
2014,07,10,15,10,53.10
2014,07,10,15,11,49.90
2014,07,10,15,12,38.60
2014,07,10,15,13,41.80
2014,07,10,15,14,43.50
2014,07,10,15,15,49.90
2014,07,10,15,16,70.80
2014,07,10,15,17,64.40
2014,07,10,15,18,46.70
2014,07,10,15,19,33.80
2014,07,10,15,20,43.50
2014,07,10,15,21,85.30
2014,07,10,15,22,78.80
2014,07,10,15,23,62.70
2014,07,10,15,24,41.80
2014,07,10,15,25,49.90
2014,07,10,15,26,51.50
2014,07,10,15,27,54.70
2014,07,10,15,28,51.50
2014,07,10,15,29,69.20
2014,07,10,15,30,69.20
2014,07,10,15,31,49.90
2014,07,10,15,32,53.10
2014,07,10,15,33,25.70
2014,07,10,15,34,96.60
2014,07,10,15,35,61.20
2014,07,10,15,36,54.70
2014,07,10,15,37,49.90
2014,07,10,15,38,82.10
2014,07,10,15,39,106.20
2014,07,10,15,40,99.80
2014,07,10,15,41,48.30
2014,07,10,15,42,30.60
2014,07,10,15,43,25.70
2014,07,10,15,44,43.50
2014,07,10,15,45,8.10
2014,07,10,15,46,48.30
2014,07,10,15,47,24.20
2014,07,10,15,48,30.60
2014,07,10,15,49,20.90
2014,07,10,15,50,19.30
2014,07,10,15,51,27.40
2014,07,10,15,52,22.50
2014,07,10,15,53,29.00
2014,07,10,15,54,25.70
2014,07,10,15,55,30.60
2014,07,10,15,56,27.40
2014,07,10,15,57,16.10
2014,07,10,15,58,30.60
2014,07,10,15,59,29.00
2014,07,10,16,00,30.60
2014,07,10,16,01,14.50
2014,07,10,16,02,24.20
2014,07,10,16,03,20.90
2014,07,10,16,04,25.70
2014,07,10,16,05,27.40
2014,07,10,16,06,33.80
2014,07,10,16,07,17.70
2014,07,10,16,08,24.20
2014,07,10,16,09,38.60
2014,07,10,16,10,25.70
2014,07,10,16,11,14.50
2014,07,10,16,12,24.20
2014,07,10,16,13,14.50
2014,07,10,16,14,8.10
2014,07,10,16,15,12.90
2014,07,10,16,16,24.20
2014,07,10,16,17,22.50
2014,07,10,16,18,37.00
2014,07,10,16,19,27.40
2014,07,10,16,20,43.50
2014,07,10,16,21,27.40
2014,07,10,16,22,30.60
2014,07,10,16,23,19.30
2014,07,10,16,24,22.50
2014,07,10,16,25,30.60
2014,07,10,16,26,40.20
2014,07,10,16,27,37.00
2014,07,10,16,28,40.20
2014,07,10,16,29,22.50
2014,07,10,16,30,30.60
2014,07,10,16,31,30.60
2014,07,10,16,32,19.30
2014,07,10,16,33,17.70
2014,07,10,16,34,9.60
2014,07,10,16,35,30.60
2014,07,10,16,36,12.90
2014,07,10,16,37,20.90
2014,07,10,16,38,24.20
2014,07,10,16,39,17.70
2014,07,10,16,40,22.50
2014,07,10,16,41,29.00
2014,07,10,16,42,9.60
2014,07,10,16,43,24.20
2014,07,10,16,44,29.00
2014,07,10,16,45,17.70
2014,07,10,16,46,25.70
2014,07,10,16,47,20.90
2014,07,10,16,48,35.40
2014,07,10,16,49,41.80
2014,07,10,16,50,24.20
2014,07,10,16,51,33.80
2014,07,10,16,52,32.20
2014,07,10,16,53,20.90
2014,07,10,16,54,22.50
2014,07,10,16,55,16.10
2014,07,10,16,56,9.60
2014,07,10,16,57,22.50
2014,07,10,16,58,22.50
2014,07,10,16,59,27.40
2014,07,10,17,00,38.60
2014,07,10,17,01,27.40
2014,07,10,17,02,29.00
2014,07,10,17,03,19.30
2014,07,10,17,04,14.50
2014,07,10,17,05,22.50
2014,07,10,17,06,24.20
2014,07,10,17,07,22.50
2014,07,10,17,08,17.70
2014,07,10,17,09,24.20
2014,07,10,17,10,8.10
2014,07,10,17,11,14.50
2014,07,10,17,12,9.60
2014,07,10,17,13,17.70
2014,07,10,17,14,32.20
2014,07,10,17,15,22.50
2014,07,10,17,16,20.90
2014,07,10,17,17,11.30
2014,07,10,17,18,17.70
2014,07,10,17,19,17.70
2014,07,10,17,20,19.30
2014,07,10,17,21,27.40
2014,07,10,17,22,17.70
2014,07,10,17,23,35.40
2014,07,10,17,24,24.20
2014,07,10,17,25,27.40
2014,07,10,17,26,24.20
2014,07,10,17,27,20.90
2014,07,10,17,28,20.90
2014,07,10,17,29,16.10
2014,07,10,17,30,9.60
2014,07,10,17,31,6.40
2014,07,10,17,32,16.10
2014,07,10,17,33,16.10
2014,07,10,17,34,16.10
2014,07,10,17,35,17.70
2014,07,10,17,36,16.10
2014,07,10,17,37,14.50
2014,07,10,17,38,30.60
2014,07,10,17,39,33.80
2014,07,10,17,40,20.90
2014,07,10,17,41,14.50
2014,07,10,17,42,9.60
2014,07,10,17,43,11.30
2014,07,10,17,44,9.60
2014,07,10,17,45,20.90
2014,07,10,17,46,14.50
2014,07,10,17,47,19.30
2014,07,10,17,48,30.60
2014,07,10,17,49,14.50
2014,07,10,17,50,9.60
2014,07,10,17,51,1.60
2014,07,10,17,52,22.50
2014,07,10,17,53,16.10
2014,07,10,17,54,9.60
2014,07,10,17,55,14.50
2014,07,10,17,56,20.90
2014,07,10,17,57,11.30
2014,07,10,17,58,14.50
2014,07,10,17,59,20.90
2014,07,10,18,00,9.60
2014,07,10,18,01,11.30
2014,07,10,18,02,17.70
2014,07,10,18,03,4.80
2014,07,10,18,04,3.20
2014,07,10,18,05,8.10
2014,07,10,18,06,16.10
2014,07,10,18,07,9.60
2014,07,10,18,08,4.80
2014,07,10,18,09,11.30
2014,07,10,18,10,11.30
2014,07,10,18,11,11.30
2014,07,10,18,12,8.10
2014,07,10,18,13,14.50
2014,07,10,18,14,16.10
2014,07,10,18,15,17.70
2014,07,10,18,16,17.70
2014,07,10,18,17,16.10
2014,07,10,18,18,19.30
2014,07,10,18,19,16.10
2014,07,10,18,20,16.10
2014,07,10,18,21,14.50
2014,07,10,18,22,11.30
2014,07,10,18,23,11.30
2014,07,10,18,24,20.90
2014,07,10,18,25,20.90
2014,07,10,18,26,14.50
2014,07,10,18,27,19.30
2014,07,10,18,28,9.60
2014,07,10,18,29,6.40
2014,07,10,18,30,8.10
2014,07,10,18,31,8.10
2014,07,10,18,32,4.80
2014,07,10,18,33,11.30
2014,07,10,18,34,17.70
2014,07,10,18,35,4.80
2014,07,10,18,36,19.30
2014,07,10,18,37,9.60
2014,07,10,18,38,4.80
2014,07,10,18,39,24.20
2014,07,10,18,40,24.20
2014,07,10,18,41,8.10
2014,07,10,18,42,14.50
2014,07,10,18,43,4.80
2014,07,10,18,44,1.60
2014,07,10,18,45,4.80
2014,07,10,18,46,1.60
2014,07,10,18,47,6.40
2014,07,10,18,48,4.80
2014,07,10,18,49,8.10
2014,07,10,18,50,8.10
2014,07,10,18,51,11.30
2014,07,10,18,52,6.40
2014,07,10,18,53,6.40
2014,07,10,18,54,4.80